STARLINK-3855 (52474 NORAD) Tracking and Keplerian Element Data
This shows tracking and keplerian element data for the satellite.
Feedback or suggestion? Click here.
Element | Value |
Catalog | 52474 |
Name | STARLINK-3855 |
Epoch Orbit | 130 |
Epoch Day | 167.08334491 |
Epoch Year | 2022 |
RAAN | 64.9902 |
Inclination | 53.2164 |
Eccentricity | 0.0002036 |
Argument of Perigee | 31.6631 |
Mean Anonmoly | 111.6138 |
Mean Motion | 15.73190984 |
Decay Rate | 0.00088132 |
L1 | 1 52474U 22049Z 22167.08334491 .00088132 00000+0 62601-3 0 9998 |
L2 | 2 52474 53.2164 64.9902 0002036 31.6631 111.6138 15.73190984 1308 |
Live tracking and technical data element details for STARLINK-3855 (NORAD 52474). STARLINK-3855 can be tracked NOW for your location showing map with azimuth and elevation plus other details from your city location.
Track the satellite on the map from your city or location and see movement details for azimuth, elevation, latitude, longitude, range, height, and movement on the map or in text.
IsCatalogInMostPopularTable: catalog: 52474, numindb: 1
Update: records affected: 1
GetName: 52474 STARLINK-3855
Hit Count: updated at: Mon, 27 Jun 2022 05:00:27 GMT